N17AW KELM-KFRG

Flight info

Callsign N17AW
Flight time 1h 17m
Altitude 7000
Route CFB DANZI PAWLN1
Aircraft C208/L-SDFGR/C

Departure

Time 2026-05-06 22:46
Airport Elmira Corning Regional Airport (KELM)

Arrival

Time 2026-05-07 00:03
Airport Republic Airport (KFRG)
Time Latitude Longitude Altitude Speed Heading
2026-05-06 22:38 42.16291 -76.89402 949 ft 0 kts 313°
2026-05-06 22:42 42.16292 -76.89403 959 ft 1 kts 323°
2026-05-06 22:42 42.16289 -76.89386 949 ft 6 kts 134°
2026-05-06 22:43 42.16230 -76.89416 949 ft 15 kts 227°
2026-05-06 22:43 42.16153 -76.89484 949 ft 10 kts 144°
2026-05-06 22:43 42.16084 -76.89442 950 ft 15 kts 220°
2026-05-06 22:43 42.16013 -76.89557 950 ft 15 kts 233°
2026-05-06 22:44 42.15939 -76.89691 950 ft 21 kts 235°
2026-05-06 22:44 42.15860 -76.89830 950 ft 17 kts 232°
2026-05-06 22:44 42.15795 -76.89914 952 ft 11 kts 148°
2026-05-06 22:44 42.15785 -76.89811 952 ft 15 kts 89°
2026-05-06 22:45 42.15790 -76.89658 952 ft 17 kts 73°
2026-05-06 22:45 42.15902 -76.89455 950 ft 48 kts 51°
2026-05-06 22:45 42.16221 -76.88935 958 ft 92 kts 52°
2026-05-06 22:45 42.16674 -76.88216 1165 ft 102 kts 52°
2026-05-06 22:46 42.17124 -76.87433 1401 ft 110 kts 55°
2026-05-06 22:46 42.17515 -76.86516 1678 ft 114 kts 64°
2026-05-06 22:46 42.17711 -76.85487 1953 ft 116 kts 82°
2026-05-06 22:46 42.17738 -76.84316 2052 ft 131 kts 83°
2026-05-06 22:47 42.17765 -76.83084 2268 ft 132 kts 82°
2026-05-06 22:47 42.17785 -76.81841 2543 ft 130 kts 82°
2026-05-06 22:47 42.17806 -76.80612 2762 ft 135 kts 84°
2026-05-06 22:47 42.17869 -76.79301 2951 ft 143 kts 70°
2026-05-06 22:48 42.18234 -76.78072 3182 ft 144 kts 75°
2026-05-06 22:48 42.18194 -76.76720 3401 ft 145 kts 89°
2026-05-06 22:48 42.18158 -76.75374 3616 ft 144 kts 86°
2026-05-06 22:48 42.18134 -76.74009 3824 ft 145 kts 89°
2026-05-06 22:49 42.18087 -76.72645 4032 ft 146 kts 89°
2026-05-06 22:49 42.18037 -76.71290 4235 ft 146 kts 89°
2026-05-06 22:49 42.17985 -76.69907 4443 ft 147 kts 90°
2026-05-06 22:49 42.17936 -76.68538 4648 ft 147 kts 90°
2026-05-06 22:50 42.17883 -76.67163 4850 ft 148 kts 91°
2026-05-06 22:50 42.17830 -76.65755 5054 ft 151 kts 91°
2026-05-06 22:50 42.17778 -76.64333 5249 ft 151 kts 92°
2026-05-06 22:50 42.17725 -76.62919 5452 ft 153 kts 92°
2026-05-06 22:51 42.17672 -76.61480 5660 ft 153 kts 92°
2026-05-06 22:51 42.17616 -76.60040 5860 ft 156 kts 93°
2026-05-06 22:51 42.17562 -76.58572 6065 ft 156 kts 93°
2026-05-06 22:51 42.17505 -76.57125 6270 ft 156 kts 94°
2026-05-06 22:52 42.17446 -76.55639 6473 ft 158 kts 94°
2026-05-06 22:52 42.17390 -76.54157 6660 ft 161 kts 94°
2026-05-06 22:52 42.17331 -76.52635 6856 ft 162 kts 94°
2026-05-06 22:52 42.17275 -76.51117 7000 ft 168 kts 95°
2026-05-06 22:53 42.17209 -76.49473 7005 ft 178 kts 96°
2026-05-06 22:53 42.17137 -76.47787 7008 ft 185 kts 96°
2026-05-06 22:53 42.17071 -76.46050 7017 ft 188 kts 96°
2026-05-06 22:53 42.17000 -76.44249 7011 ft 192 kts 96°
2026-05-06 22:54 42.16928 -76.42442 7014 ft 195 kts 95°
2026-05-06 22:54 42.16863 -76.40597 7011 ft 195 kts 95°
2026-05-06 22:54 42.16791 -76.38782 7009 ft 196 kts 96°
2026-05-06 22:54 42.16718 -76.36929 7011 ft 196 kts 96°
2026-05-06 22:55 42.16642 -76.35109 6996 ft 197 kts 96°
2026-05-06 22:55 42.16563 -76.33261 6995 ft 196 kts 96°
2026-05-06 22:55 42.16493 -76.31437 6994 ft 196 kts 95°
2026-05-06 22:55 42.16422 -76.29584 7000 ft 197 kts 96°
2026-05-06 22:56 42.16344 -76.27753 6991 ft 196 kts 96°
2026-05-06 22:56 42.16271 -76.25911 6992 ft 195 kts 96°
2026-05-06 22:56 42.16198 -76.24081 6996 ft 196 kts 96°
2026-05-06 22:56 42.16125 -76.22261 6996 ft 196 kts 96°
2026-05-06 22:57 42.16046 -76.20415 6988 ft 196 kts 96°
2026-05-06 22:57 42.15970 -76.18584 6987 ft 196 kts 96°
2026-05-06 22:57 42.15893 -76.16759 6985 ft 196 kts 96°
2026-05-06 22:57 42.15818 -76.14924 6984 ft 195 kts 95°
2026-05-06 22:58 42.15772 -76.13092 6976 ft 197 kts 92°
2026-05-06 22:58 42.15822 -76.11246 6984 ft 196 kts 92°
2026-05-06 22:58 42.15862 -76.09421 6994 ft 196 kts 92°
2026-05-06 22:58 42.15901 -76.07568 6992 ft 197 kts 92°
2026-05-06 22:59 42.15943 -76.05732 6992 ft 198 kts 92°
2026-05-06 22:59 42.15984 -76.03866 6990 ft 198 kts 92°
2026-05-06 22:59 42.16024 -76.02006 6994 ft 198 kts 91°
2026-05-06 22:59 42.16064 -76.00175 7003 ft 197 kts 91°
2026-05-06 23:00 42.16098 -75.98313 7003 ft 197 kts 92°
2026-05-06 23:00 42.16123 -75.96482 7009 ft 198 kts 89°
2026-05-06 23:00 42.16183 -75.94620 7004 ft 197 kts 90°
2026-05-06 23:00 42.16224 -75.92782 7001 ft 198 kts 90°
2026-05-06 23:01 42.16260 -75.90915 7000 ft 198 kts 90°
2026-05-06 23:01 42.16299 -75.89077 7000 ft 197 kts 90°
2026-05-06 23:01 42.16336 -75.87237 6998 ft 197 kts 90°
2026-05-06 23:01 42.16374 -75.85385 6999 ft 197 kts 90°
2026-05-06 23:02 42.16411 -75.83525 7002 ft 198 kts 90°
2026-05-06 23:02 42.16445 -75.81684 6998 ft 197 kts 91°
2026-05-06 23:02 42.16478 -75.79819 7000 ft 198 kts 90°
2026-05-06 23:02 42.16524 -75.77977 6988 ft 198 kts 91°
2026-05-06 23:03 42.16561 -75.76116 6992 ft 199 kts 91°
2026-05-06 23:03 42.16595 -75.74236 6993 ft 200 kts 91°
2026-05-06 23:03 42.16630 -75.72378 6994 ft 200 kts 91°
2026-05-06 23:03 42.16666 -75.70489 6991 ft 200 kts 91°
2026-05-06 23:04 42.16702 -75.68619 6992 ft 200 kts 91°
2026-05-06 23:04 42.16733 -75.66767 6989 ft 199 kts 91°
2026-05-06 23:04 42.16770 -75.64891 6994 ft 200 kts 91°
2026-05-06 23:04 42.16807 -75.63010 6980 ft 199 kts 91°
2026-05-06 23:05 42.16841 -75.61162 6982 ft 199 kts 91°
2026-05-06 23:05 42.16874 -75.59284 6984 ft 200 kts 91°
2026-05-06 23:05 42.16907 -75.57420 6985 ft 201 kts 91°
2026-05-06 23:05 42.16940 -75.55519 6984 ft 201 kts 91°
2026-05-06 23:06 42.16974 -75.53655 6991 ft 199 kts 91°
2026-05-06 23:06 42.17007 -75.51780 6990 ft 200 kts 91°
2026-05-06 23:06 42.17039 -75.49914 6991 ft 200 kts 91°
2026-05-06 23:06 42.17072 -75.48043 6980 ft 200 kts 91°
2026-05-06 23:07 42.17092 -75.46791 6980 ft 200 kts 91°
2026-05-06 23:07 42.17134 -75.44302 6982 ft 199 kts 91°
2026-05-06 23:07 42.17155 -75.43055 6984 ft 199 kts 91°
2026-05-06 23:07 42.17185 -75.41190 6979 ft 200 kts 92°
2026-05-06 23:08 42.17218 -75.39297 6984 ft 201 kts 92°
2026-05-06 23:08 42.17247 -75.37415 6975 ft 202 kts 93°
2026-05-06 23:08 42.17277 -75.35540 6988 ft 201 kts 92°
2026-05-06 23:08 42.17307 -75.33651 6979 ft 201 kts 92°
2026-05-06 23:09 42.17338 -75.31750 6967 ft 203 kts 92°
2026-05-06 23:09 42.17365 -75.29868 6982 ft 202 kts 92°
2026-05-06 23:09 42.17395 -75.27985 6975 ft 200 kts 92°
2026-05-06 23:09 42.17424 -75.26082 6977 ft 203 kts 92°
2026-05-06 23:10 42.17454 -75.24198 6973 ft 201 kts 92°
2026-05-06 23:10 42.17482 -75.22321 6976 ft 203 kts 92°
2026-05-06 23:10 42.17506 -75.20409 6960 ft 202 kts 92°
2026-05-06 23:10 42.17538 -75.18524 6960 ft 203 kts 92°
2026-05-06 23:11 42.17564 -75.16623 6965 ft 200 kts 92°
2026-05-06 23:11 42.17589 -75.14739 6955 ft 202 kts 92°
2026-05-06 23:11 42.17613 -75.12867 6967 ft 201 kts 92°
2026-05-06 23:11 42.17644 -75.10984 6969 ft 202 kts 92°
2026-05-06 23:12 42.17672 -75.09067 6972 ft 204 kts 92°
2026-05-06 23:12 42.17696 -75.07156 6974 ft 205 kts 92°
2026-05-06 23:12 42.17718 -75.05252 6944 ft 202 kts 93°
2026-05-06 23:12 42.17744 -75.03330 6957 ft 204 kts 92°
2026-05-06 23:13 42.17774 -75.01435 6955 ft 204 kts 92°
2026-05-06 23:13 42.17797 -74.99510 6959 ft 205 kts 93°
2026-05-06 23:13 42.17819 -74.97582 6963 ft 207 kts 93°
2026-05-06 23:13 42.17847 -74.95641 6963 ft 208 kts 91°
2026-05-06 23:14 42.17977 -74.93702 6962 ft 209 kts 88°
2026-05-06 23:14 42.18105 -74.91748 6954 ft 204 kts 88°
2026-05-06 23:14 42.18225 -74.89851 6962 ft 205 kts 88°
2026-05-06 23:14 42.18346 -74.87917 6968 ft 205 kts 88°
2026-05-06 23:15 42.18472 -74.86009 6967 ft 206 kts 88°
2026-05-06 23:15 42.18597 -74.84062 6958 ft 206 kts 88°
2026-05-06 23:15 42.18716 -74.82156 6968 ft 205 kts 89°
2026-05-06 23:15 42.18834 -74.80279 6970 ft 201 kts 88°
2026-05-06 23:16 42.18958 -74.78383 6970 ft 200 kts 88°
2026-05-06 23:16 42.19078 -74.76495 6961 ft 203 kts 88°
2026-05-06 23:16 42.19198 -74.74595 6954 ft 205 kts 89°
2026-05-06 23:16 42.19318 -74.72698 6958 ft 206 kts 88°
2026-05-06 23:17 42.19438 -74.70773 6950 ft 201 kts 89°
2026-05-06 23:17 42.19556 -74.68875 6942 ft 204 kts 88°
2026-05-06 23:17 42.19675 -74.66997 6962 ft 203 kts 88°
2026-05-06 23:17 42.19797 -74.65071 6951 ft 206 kts 88°
2026-05-06 23:18 42.19916 -74.63182 6943 ft 204 kts 88°
2026-05-06 23:18 42.20035 -74.61257 6939 ft 203 kts 88°
2026-05-06 23:18 42.20151 -74.59383 6944 ft 202 kts 88°
2026-05-06 23:18 42.20269 -74.57471 6939 ft 203 kts 88°
2026-05-06 23:19 42.20392 -74.55573 6942 ft 205 kts 88°
2026-05-06 23:19 42.20505 -74.53667 6946 ft 204 kts 88°
2026-05-06 23:19 42.20621 -74.51730 6943 ft 206 kts 88°
2026-05-06 23:19 42.20738 -74.49832 6931 ft 203 kts 88°
2026-05-06 23:20 42.20863 -74.47908 6933 ft 205 kts 88°
2026-05-06 23:20 42.20971 -74.46005 6934 ft 205 kts 88°
2026-05-06 23:20 42.21084 -74.44101 6933 ft 205 kts 88°
2026-05-06 23:20 42.21202 -74.42184 6925 ft 202 kts 88°
2026-05-06 23:21 42.21319 -74.40300 6931 ft 200 kts 89°
2026-05-06 23:21 42.21428 -74.38446 6935 ft 200 kts 88°
2026-05-06 23:21 42.21542 -74.36544 6944 ft 205 kts 88°
2026-05-06 23:21 42.21652 -74.34632 6925 ft 204 kts 88°
2026-05-06 23:22 42.21767 -74.32733 6927 ft 205 kts 88°
2026-05-06 23:22 42.21888 -74.30807 6917 ft 203 kts 88°
2026-05-06 23:22 42.21995 -74.28931 6929 ft 202 kts 89°
2026-05-06 23:22 42.22086 -74.27032 6925 ft 203 kts 88°
2026-05-06 23:23 42.22213 -74.25172 6924 ft 201 kts 87°
2026-05-06 23:23 42.22023 -74.23328 6909 ft 194 kts 121°
2026-05-06 23:23 42.21174 -74.22045 6917 ft 176 kts 157°
2026-05-06 23:23 42.20157 -74.21207 6884 ft 176 kts 146°
2026-05-06 23:24 42.19377 -74.19901 6893 ft 176 kts 136°
2026-05-06 23:24 42.18525 -74.18768 6920 ft 171 kts 151°
2026-05-06 23:24 42.17619 -74.17702 6924 ft 179 kts 146°
2026-05-06 23:24 42.16741 -74.16480 6922 ft 184 kts 140°
2026-05-06 23:25 42.15898 -74.15167 6917 ft 184 kts 140°
2026-05-06 23:25 42.15040 -74.13890 6912 ft 183 kts 143°
2026-05-06 23:25 42.14177 -74.12670 6910 ft 180 kts 143°
2026-05-06 23:25 42.13312 -74.11449 6909 ft 179 kts 143°
2026-05-06 23:26 42.12462 -74.10242 6905 ft 180 kts 143°
2026-05-06 23:26 42.11606 -74.09012 6900 ft 179 kts 144°
2026-05-06 23:26 42.10741 -74.07837 6899 ft 174 kts 146°
2026-05-06 23:26 42.09903 -74.06625 6903 ft 176 kts 143°
2026-05-06 23:27 42.09090 -74.05408 6902 ft 178 kts 137°
2026-05-06 23:27 42.08236 -74.04205 6911 ft 176 kts 147°
2026-05-06 23:27 42.07365 -74.03028 6905 ft 181 kts 143°
2026-05-06 23:27 42.06511 -74.01776 6904 ft 183 kts 142°
2026-05-06 23:28 42.05632 -74.00516 6904 ft 184 kts 144°
2026-05-06 23:28 42.04737 -73.99279 6896 ft 185 kts 143°
2026-05-06 23:28 42.03851 -73.98018 6894 ft 187 kts 142°
2026-05-06 23:28 42.02950 -73.96724 6895 ft 188 kts 142°
2026-05-06 23:29 42.02056 -73.95454 6891 ft 188 kts 143°
2026-05-06 23:29 42.01157 -73.94179 6893 ft 188 kts 142°
2026-05-06 23:29 42.00250 -73.92889 6892 ft 188 kts 143°
2026-05-06 23:29 41.99348 -73.91615 6887 ft 189 kts 143°
2026-05-06 23:30 41.98451 -73.90342 6939 ft 187 kts 143°
2026-05-06 23:30 41.97561 -73.89066 6966 ft 187 kts 143°
2026-05-06 23:30 41.96664 -73.87810 6968 ft 188 kts 143°
2026-05-06 23:30 41.95747 -73.86516 6963 ft 189 kts 143°
2026-05-06 23:31 41.94847 -73.85239 6966 ft 189 kts 143°
2026-05-06 23:31 41.93945 -73.83964 6969 ft 191 kts 143°
2026-05-06 23:31 41.93031 -73.82652 6979 ft 193 kts 142°
2026-05-06 23:31 41.92107 -73.81348 6975 ft 194 kts 143°
2026-05-06 23:32 41.91172 -73.80032 6973 ft 192 kts 143°
2026-05-06 23:32 41.90252 -73.78747 6979 ft 192 kts 143°
2026-05-06 23:32 41.89333 -73.77450 6978 ft 192 kts 142°
2026-05-06 23:32 41.88422 -73.76156 6974 ft 192 kts 143°
2026-05-06 23:33 41.87501 -73.74859 6974 ft 190 kts 143°
2026-05-06 23:33 41.86588 -73.73576 6976 ft 191 kts 143°
2026-05-06 23:33 41.85670 -73.72282 6974 ft 189 kts 143°
2026-05-06 23:33 41.84773 -73.71016 6967 ft 188 kts 143°
2026-05-06 23:34 41.83880 -73.69755 6971 ft 187 kts 143°
2026-05-06 23:34 41.82976 -73.68487 6970 ft 187 kts 143°
2026-05-06 23:34 41.82084 -73.67230 6970 ft 186 kts 143°
2026-05-06 23:34 41.81185 -73.65963 6970 ft 186 kts 143°
2026-05-06 23:35 41.80296 -73.64718 6975 ft 186 kts 143°
2026-05-06 23:35 41.79409 -73.63446 6986 ft 185 kts 142°
2026-05-06 23:35 41.78522 -73.62225 6977 ft 185 kts 143°
2026-05-06 23:35 41.77627 -73.60976 6977 ft 184 kts 143°
2026-05-06 23:36 41.76671 -73.59931 6972 ft 172 kts 165°
2026-05-06 23:36 41.75571 -73.59388 6968 ft 165 kts 172°
2026-05-06 23:36 41.74522 -73.58865 6989 ft 162 kts 168°
2026-05-06 23:36 41.73475 -73.58302 6980 ft 159 kts 174°
2026-05-06 23:37 41.72427 -73.57850 6990 ft 161 kts 174°
2026-05-06 23:37 41.71350 -73.57369 6988 ft 165 kts 172°
2026-05-06 23:37 41.70273 -73.56814 6988 ft 168 kts 169°
2026-05-06 23:37 41.69181 -73.56222 6989 ft 168 kts 172°
2026-05-06 23:38 41.68068 -73.55709 6983 ft 170 kts 173°
2026-05-06 23:38 41.66958 -73.55184 6988 ft 170 kts 172°
2026-05-06 23:38 41.65842 -73.54643 6986 ft 169 kts 172°
2026-05-06 23:38 41.64753 -73.54104 6981 ft 168 kts 171°
2026-05-06 23:39 41.63677 -73.53543 6987 ft 166 kts 173°
2026-05-06 23:39 41.62566 -73.53055 6987 ft 168 kts 173°
2026-05-06 23:39 41.61461 -73.52535 6987 ft 170 kts 172°
2026-05-06 23:39 41.60352 -73.51978 6983 ft 170 kts 171°
2026-05-06 23:40 41.59246 -73.51429 6981 ft 167 kts 171°
2026-05-06 23:40 41.58175 -73.50856 6999 ft 167 kts 168°
2026-05-06 23:40 41.57099 -73.50342 6998 ft 163 kts 178°
2026-05-06 23:40 41.55998 -73.49901 6991 ft 167 kts 174°
2026-05-06 23:41 41.54901 -73.49360 6984 ft 170 kts 172°
2026-05-06 23:41 41.53799 -73.48768 6987 ft 173 kts 164°
2026-05-06 23:41 41.52800 -73.47810 7004 ft 179 kts 153°
2026-05-06 23:41 41.51808 -73.46820 7003 ft 179 kts 154°
2026-05-06 23:42 41.50797 -73.45835 7000 ft 178 kts 155°
2026-05-06 23:42 41.49790 -73.44874 7004 ft 181 kts 155°
2026-05-06 23:42 41.48758 -73.43879 7011 ft 183 kts 155°
2026-05-06 23:42 41.47716 -73.42869 7040 ft 185 kts 155°
2026-05-06 23:43 41.46676 -73.41862 7031 ft 186 kts 155°
2026-05-06 23:43 41.45642 -73.40858 7031 ft 185 kts 155°
2026-05-06 23:43 41.44595 -73.39849 7032 ft 184 kts 155°
2026-05-06 23:43 41.43567 -73.38844 7036 ft 185 kts 154°
2026-05-06 23:44 41.42523 -73.37825 7036 ft 185 kts 154°
2026-05-06 23:44 41.41473 -73.36813 7036 ft 185 kts 154°
2026-05-06 23:44 41.40434 -73.35814 7036 ft 185 kts 154°
2026-05-06 23:44 41.39391 -73.34825 7033 ft 183 kts 159°
2026-05-06 23:45 41.38241 -73.34473 6966 ft 164 kts 196°
2026-05-06 23:45 41.37068 -73.34598 6803 ft 174 kts 189°
2026-05-06 23:45 41.35841 -73.34457 6644 ft 182 kts 183°
2026-05-06 23:45 41.34574 -73.34221 6471 ft 184 kts 181°
2026-05-06 23:46 41.33310 -73.33986 6309 ft 184 kts 182°
2026-05-06 23:46 41.32031 -73.33764 6143 ft 185 kts 182°
2026-05-06 23:46 41.30755 -73.33538 5965 ft 186 kts 181°
2026-05-06 23:46 41.29465 -73.33308 5787 ft 186 kts 182°
2026-05-06 23:47 41.28187 -73.33081 5610 ft 186 kts 181°
2026-05-06 23:47 41.26908 -73.32858 5431 ft 185 kts 181°
2026-05-06 23:47 41.25637 -73.32635 5255 ft 185 kts 181°
2026-05-06 23:47 41.24355 -73.32401 5084 ft 183 kts 181°
2026-05-06 23:48 41.23108 -73.32171 4916 ft 182 kts 182°
2026-05-06 23:48 41.21829 -73.31968 4745 ft 184 kts 181°
2026-05-06 23:48 41.20568 -73.31747 4575 ft 185 kts 181°
2026-05-06 23:48 41.19294 -73.31518 4397 ft 185 kts 181°
2026-05-06 23:49 41.18008 -73.31288 4208 ft 186 kts 181°
2026-05-06 23:49 41.17068 -73.31123 4742 ft 108 kts 181°
2026-05-06 23:49 41.16309 -73.30858 4615 ft 120 kts 178°
2026-05-06 23:49 41.15416 -73.30534 4531 ft 146 kts 175°
2026-05-06 23:50 41.14382 -73.30257 4409 ft 153 kts 192°
2026-05-06 23:50 41.12150 -73.30259 4121 ft 170 kts 181°
2026-05-06 23:50 41.10963 -73.30037 3954 ft 172 kts 181°
2026-05-06 23:51 41.09789 -73.29825 3846 ft 170 kts 181°
2026-05-06 23:51 41.08625 -73.29617 3843 ft 166 kts 182°
2026-05-06 23:51 41.07493 -73.29419 3840 ft 164 kts 182°
2026-05-06 23:51 41.06372 -73.29224 3840 ft 163 kts 182°
2026-05-06 23:52 41.05237 -73.29026 3767 ft 166 kts 182°
2026-05-06 23:52 41.04084 -73.28825 3639 ft 165 kts 182°
2026-05-06 23:52 41.02954 -73.28626 3513 ft 165 kts 182°
2026-05-06 23:52 41.01818 -73.28426 3390 ft 163 kts 182°
2026-05-06 23:53 41.00702 -73.28231 3261 ft 162 kts 182°
2026-05-06 23:53 40.99570 -73.28033 3138 ft 163 kts 182°
2026-05-06 23:53 40.98453 -73.27839 3013 ft 163 kts 182°
2026-05-06 23:53 40.97341 -73.27644 2889 ft 162 kts 182°
2026-05-06 23:54 40.96219 -73.27447 2751 ft 161 kts 182°
2026-05-06 23:54 40.95119 -73.27264 2623 ft 158 kts 185°
2026-05-06 23:54 40.94092 -73.27516 2487 ft 145 kts 211°
2026-05-06 23:54 40.93301 -73.28269 2360 ft 139 kts 232°
2026-05-06 23:55 40.92812 -73.29368 2234 ft 138 kts 251°
2026-05-06 23:55 40.92611 -73.30605 2115 ft 139 kts 256°
2026-05-06 23:55 40.92408 -73.31870 1989 ft 141 kts 255°
2026-05-06 23:55 40.92198 -73.33140 1869 ft 141 kts 256°
2026-05-06 23:56 40.91993 -73.34394 1836 ft 138 kts 256°
2026-05-06 23:56 40.91792 -73.35615 1834 ft 136 kts 256°
2026-05-06 23:56 40.91592 -73.36836 1826 ft 134 kts 255°
2026-05-06 23:56 40.91397 -73.38026 1822 ft 133 kts 256°
2026-05-06 23:57 40.91199 -73.39228 1821 ft 133 kts 256°
2026-05-06 23:57 40.90993 -73.40414 1822 ft 131 kts 251°
2026-05-06 23:57 40.90453 -73.41361 1830 ft 133 kts 220°
2026-05-06 23:57 40.89555 -73.41761 1833 ft 143 kts 188°
2026-05-06 23:58 40.88557 -73.41715 1833 ft 144 kts 186°
2026-05-06 23:58 40.87541 -73.41698 1834 ft 145 kts 187°
2026-05-06 23:58 40.86537 -73.41693 1835 ft 146 kts 189°
2026-05-06 23:58 40.85509 -73.41684 1837 ft 146 kts 188°
2026-05-06 23:59 40.84501 -73.41667 1834 ft 146 kts 187°
2026-05-06 23:59 40.83495 -73.41644 1832 ft 141 kts 188°
2026-05-06 23:59 40.82539 -73.41617 1823 ft 131 kts 188°
2026-05-06 23:59 40.81665 -73.41599 1697 ft 121 kts 189°
2026-05-07 00:00 40.80845 -73.41583 1538 ft 116 kts 188°
2026-05-07 00:00 40.80048 -73.41572 1376 ft 116 kts 187°
2026-05-07 00:00 40.79246 -73.41553 1215 ft 113 kts 187°
2026-05-07 00:00 40.78464 -73.41541 1067 ft 111 kts 187°
2026-05-07 00:01 40.77709 -73.41523 920 ft 107 kts 185°
2026-05-07 00:01 40.76983 -73.41504 764 ft 103 kts 184°
2026-05-07 00:01 40.76334 -73.41500 635 ft 84 kts 184°
2026-05-07 00:01 40.75772 -73.41484 514 ft 76 kts 182°
2026-05-07 00:02 40.75258 -73.41469 379 ft 68 kts 186°
2026-05-07 00:02 40.74784 -73.41456 301 ft 71 kts 176°
2026-05-07 00:02 40.74280 -73.41459 217 ft 73 kts 178°
2026-05-07 00:02 40.73774 -73.41454 119 ft 72 kts 178°
2026-05-07 00:03 40.73308 -73.41447 73 ft 59 kts 179°
2026-05-07 00:03 40.72942 -73.41441 82 ft 38 kts 181°
2026-05-07 00:03 40.72839 -73.41485 85 ft 9 kts 294°
2026-05-07 00:03 40.72879 -73.41548 85 ft 0 kts 324°
2026-05-07 00:04 40.72902 -73.41576 83 ft 11 kts 311°
2026-05-07 00:04 40.72956 -73.41679 83 ft 12 kts 267°